Aeroporto :
LOGIN :

Iscrizione | Disclaimer

   EN    FR    IT 

 










Sommario :    VFR   VFR Marginale   IFR   IFR Intensivo   IFR Molto Intensivo
Visibilità : 
Base nubi : 
>= 8 km
>= 3000ft
5 / 8 km
1000 / 3000 ft
1500m / 5 km
500 / 1000 ft
800 / 1500m
200 / 500 ft
< 800m
< 200 ft
Simboli :   Temporali  Nebbia  Neve Forte  Precipitazioni Forti  Vento > 20 kt
SIGMETs :   Varie  Temporali  Ghiacco  Turbolenza  Onda orograficha  Ceneri Vulcaniche







- Altitudine del aeroporto : 659 ft
- Codice IATA : LGG


EBLG - Liège

ULTIMO METAR :
  • 191350Z 21016KT 190V250 9999 FEW046 25/13 Q1017 NOSIG

METARs OBSOLETI :
  • 191320Z 23017KT 9999 FEW046 25/14 Q1017 NOSIG
  • 191250Z 22020KT 9999 FEW046 25/13 Q1018 NOSIG
  • 191220Z 22019KT 190V250 9999 FEW042 25/14 Q1018 NOSIG
  • 191150Z 23020KT 9999 FEW042 24/14 Q1018 NOSIG
  • 191120Z 22021KT 9999 SCT036 24/14 Q1018 NOSIG

TAF TAF EBLG
Valido dal 19 a 12 ore il 20 a 18 ore UTC


191130Z 1912/2018 21013G23KT 9999 FEW040
BECMG 1918/1920 20007KT
Nessun NOTAM noto per questo aeroporto.



MetMap, La meteo Aeronautica in un colpo d'occhio ! - Copyright ORBIFLY Dicembre 2007 - Disclaimer

ORBIFLY MET'MAP TEAM :

Programmazione e sviluppo : Alexandra Zaïnal
Concezione e sviluppo : Baudouin d'Aumeries
Co-Programmazione e sviluppo : Marc-Olivier Méhu
Supporto tecnico e logistico : Manuel Goepfert
Aiuto per la traduzione : Arnaldo La Scala

Contatto : metmap@orbifly.com




FONTI E CREDITI :

   NOAA